OPS 5712 (P/L 160)

Satellite information

Favourite Embed

Satellite Type and Status

PAYLOADIN ORBIT

Key statistics

Satellite OPS 5712 (P/L 160) at a glance.

Uptime

21162

Days in orbit

Revolutions

≈ 14.7

Per day

Orbit

LEO

Low Earth Orbit

Inclination

69.9

Latest

Satellite identification and parameters

Extended collection of information and parameters for OPS 5712 (P/L 160).

Object identification

Identified? True

Debris? False

Object name: OPS 5712 (P/L 160)

International designator: 1967-053A

Object number (NORAD): 2826

Object ID (CCSDS): 2826

Country: UNITED STATES OF AMERICA (US)

Current information (Y/N): Y

RCS size: MEDIUM

Orbital parameters

Period: 97.951 minutes

Inclination: 69.9197 deg

SMA: 7038.797 km

Apoapsis: 664.237 km

Periapsis: 657.088 km

RAAN: 305.4154 deg

Eccentricy: 0.0005078

Argument of periapsis: 247.6797 deg

Mean anomaly: 112.3809 deg

Mean motion: 14.701277 rev/day

Mean motion (dot): 0.00007699 rev/day2

B* drag term: 0.0012889 1/REarth

Two-line elements (TLE)

Creation date: May 8, 2025, 3:01 a.m.

Reference frame: TEME

Reference center: EARTH

Epoch: May 7, 2025, 10:28 p.m. UTC

TLE line 0: 0 OPS 5712 (P/L 160)

TLE line 1: 1 02826U 67053A 25127.93642748 .00007699 00000-0 12889-2 0 9990

TLE line 2: 2 02826 69.9197 305.4154 0005078 247.6797 112.3809 14.70127700 6521

Live tracking on map

Real-time ground track for satellite OPS 5712 (P/L 160).

In-orbit conjunctions

There are no conjunctions computed for OPS 5712 (P/L 160), at the moment. Check back to stay up to date, as we update our databases every day.

Go to all conjunctions

Associated space launch

Poppy was the follow-on ELINT system, which succeeded the Grab ELINT satellite system.

OPS 5712 (P/L 160) was lifted into orbit during the mission ‘Thor SLV-2 Agena D | Poppy 7A,B,C,D’, on board a Thor SLV-2 Agena D space rocket.

The launch took place on May 31, 1967, 9:30 a.m. from Space Launch Complex 2W.

For more information about the launch, click the button.

Launch to space Thor SLV-2 Agena D | Poppy 7A,B,C,D
Thor SLV-2 Agena D | Poppy 7A,B,C,D

Agency: N/A

Status: Launch Successful

Launch date: May 31, 1967, 9:30 a.m. UTC

Rocket: Thor SLV-2 Agena D

Launch pad: Space Launch Complex 2W

Location: Vandenberg SFB, CA, USA

...

Latest news about this satellite

There are no fresh news available about this satellite. Check back as we update our databases every day.


Newsletter sign-up

Weekly statistics, charts and insights to help you stay on top of the space industry.